Location: Bo?a Wola
(50.4192°N, 19.7966°E)
Time: 12:37:17
(UTC+00:00)

Cosmos 1603 - Pass Details

Date: 15 June 2024
Orbit: 829 x 860 km, 71.0° (Epoch: 16 July)

Event Time Altitude Azimuth Distance (km) Brightness Sun altitude
Rises 01:36:05 0° 326° (NNW) 3,448 7.1 -6.8°
Reaches altitude 10° 01:38:40 10° 320° (NW) 2,507 6.3 -6.5°
Maximum altitude 01:44:03 42° 251° (WSW) 1,201 4.2 -6.0°
Drops below altitude 10° 01:49:23 10° 182° (S) 2,481 5.7 -5.4°
Sets 01:51:56 0° 176° (S) 3,409 6.4 -5.1°
